^^
Station Historical Data
 
Daily Summary for October 22, 2018 Units:  English    Metric   Both
« Previous Day
Next Day »
Daily Weekly Monthly Yearly Custom
  Current: High: Low: Average:
Temperature: 54.8 °F 61.3 °F 26.2 °F 41.7 °F
Dew Point: 22.3 °F 41.2 °F 20.8 °F 26.5 °F
Humidity: 28% 92% 25% 62%
Wind Speed: 8mph 15mph 0mph 3.4mph
Wind Gust: 13mph 29mph - -
WindNW - - WNW
Pressure: 30.07 in 30.07 in 30.01 in -
Precipitation: 0 in      
Historical Graphs
 
 
Tabular Data for October 22, 2018
Time Temperature Dew Point Pressure Wind Wind Speed Wind Gust Humidity Rainfall Rate (Hourly) solar Conditions
00:00 30.2 °F 24.8 °F 30.01 in Calm     80% 0 in 0.00 W/m2 CLR
00:05 30.2 °F 24.8 °F 30.01 in Calm     80% 0 in 0.00 W/m2 SCT
00:10 30.2 °F 24.8 °F 30.01 in Calm     80% 0 in 0.00 W/m2 SCT
00:15 30 °F 24.6 °F 30.01 in Calm     80% 0 in 0.00 W/m2 SCT
00:20 29.8 °F 24.4 °F 30.01 in Calm     80% 0 in 0.00 W/m2 SCT
00:25 29.7 °F 24.3 °F 30.01 in Calm     80% 0 in 0.00 W/m2 SCT
00:30 29.8 °F 24.4 °F 30.01 in Calm     80% 0 in 0.00 W/m2 SCT
00:35 29.8 °F 24.4 °F 30.01 in Calm     80% 0 in 0.00 W/m2 SCT
00:40 29.8 °F 24.3 °F 30.01 in Calm     80% 0 in 0.00 W/m2 SCT
00:45 29.6 °F 24.2 °F 30.01 in Calm     80% 0 in 0.00 W/m2 SCT
00:50 29.6 °F 24.2 °F 30.01 in Calm     80% 0 in 0.00 W/m2 SCT
00:55 29.6 °F 24.2 °F 30.01 in Calm     80% 0 in 0.00 W/m2 SCT
01:00 29.6 °F 24.2 °F 30.01 in Calm     80% 0 in 0.00 W/m2 SCT
01:05 29.6 °F 24.2 °F 30.02 in Calm     80% 0 in 0.00 W/m2 CLR
01:10 29.4 °F 24 °F 30.02 in Calm     80% 0 in 0.00 W/m2 CLR
01:15 29.3 °F 23.9 °F 30.02 in Calm     80% 0 in 0.00 W/m2 CLR
01:20 29.3 °F 23.9 °F 30.02 in Calm     80% 0 in 0.00 W/m2 CLR
01:25 29.4 °F 24 °F 30.02 in Calm     80% 0 in 0.00 W/m2 CLR
01:30 29.4 °F 24 °F 30.02 in Calm     80% 0 in 0.00 W/m2 CLR
01:35 29.1 °F 23.7 °F 30.02 in Calm     80% 0 in 0.00 W/m2 CLR
01:40 29.3 °F 23.9 °F 30.02 in Calm     80% 0 in 0.00 W/m2 CLR
01:45 29.2 °F 23.8 °F 30.02 in Calm     80% 0 in 0.00 W/m2 CLR
01:50 29.1 °F 23.7 °F 30.02 in Calm     80% 0 in 0.00 W/m2 CLR
01:55 29 °F 23.6 °F 30.02 in Calm     80% 0 in 0.00 W/m2 CLR
02:00 28.9 °F 23.5 °F 30.02 in Calm     80% 0 in 0.00 W/m2 CLR
02:05 28.9 °F 21.7 °F 30.02 in Calm     74% 0 in 0.00 W/m2 CLR
02:10 28.7 °F 21.5 °F 30.02 in Calm     74% 0 in 0.00 W/m2 CLR
02:15 28.3 °F 21.1 °F 30.02 in Calm     74% 0 in 0.00 W/m2 CLR
02:20 28.1 °F 20.9 °F 30.02 in Calm     74% 0 in 0.00 W/m2 CLR
02:25 28.1 °F 20.9 °F 30.02 in Calm     74% 0 in 0.00 W/m2 CLR
02:30 28.2 °F 21 °F 30.02 in Calm     74% 0 in 0.00 W/m2 CLR
02:35 28.2 °F 21 °F 30.02 in Calm     74% 0 in 0.00 W/m2 CLR
02:40 28.2 °F 21 °F 30.03 in Calm     74% 0 in 0.00 W/m2 CLR
02:45 28.2 °F 21 °F 30.03 in Calm     74% 0 in 0.00 W/m2 CLR
02:50 28.4 °F 21.2 °F 30.03 in Calm     74% 0 in 0.00 W/m2 CLR
02:55 28.2 °F 20.9 °F 30.03 in Calm     74% 0 in 0.00 W/m2 CLR
03:00 28 °F 20.8 °F 30.03 in Calm     74% 0 in 0.00 W/m2 CLR
03:05 28 °F 26 °F 30.03 in Calm     92% 0 in 0.00 W/m2 CLR
03:10 27.9 °F 25.9 °F 30.02 in Calm     92% 0 in 0.00 W/m2 CLR
03:15 27.8 °F 25.8 °F 30.02 in Calm     92% 0 in 0.00 W/m2 CLR
03:20 27.6 °F 25.5 °F 30.03 in Calm     92% 0 in 0.00 W/m2 CLR
03:25 27.4 °F 25.4 °F 30.02 in Calm     92% 0 in 0.00 W/m2 CLR
03:30 27.4 °F 25.4 °F 30.02 in Calm     92% 0 in 0.00 W/m2 CLR
03:35 27.4 °F 25.4 °F 30.02 in Calm     92% 0 in 0.00 W/m2 CLR
03:40 27.6 °F 25.6 °F 30.03 in Calm     92% 0 in 0.00 W/m2 CLR
03:45 27.6 °F 25.6 °F 30.03 in Calm     92% 0 in 0.00 W/m2 CLR
03:50 27.5 °F 25.5 °F 30.03 in Calm     92% 0 in 0.00 W/m2 CLR
03:55 27.4 °F 25.4 °F 30.03 in Calm     92% 0 in 0.00 W/m2 CLR
04:00 27.4 °F 25.4 °F 30.03 in Calm     92% 0 in 0.00 W/m2 CLR
04:05 27.2 °F 23.6 °F 30.03 in Calm     86% 0 in 0.00 W/m2 SCT
04:10 27.5 °F 23.8 °F 30.04 in Calm     86% 0 in 0.00 W/m2 SCT
04:15 27.2 °F 23.6 °F 30.04 in Calm     86% 0 in 0.00 W/m2 SCT
04:20 27 °F 23.4 °F 30.04 in Calm     86% 0 in 0.00 W/m2 SCT
04:25 27.2 °F 23.6 °F 30.04 in Calm     86% 0 in 0.00 W/m2 SCT
04:30 27.3 °F 23.7 °F 30.04 in Calm     86% 0 in 0.00 W/m2 SCT
04:35 27.3 °F 23.7 °F 30.04 in Calm     86% 0 in 0.00 W/m2 SCT
04:40 27 °F 23.4 °F 30.04 in Calm     86% 0 in 0.00 W/m2 SCT
04:45 26.9 °F 23.3 °F 30.04 in Calm     86% 0 in 0.00 W/m2 SCT
04:50 26.7 °F 23.1 °F 30.04 in Calm     86% 0 in 0.00 W/m2 SCT
04:55 26.6 °F 23 °F 30.04 in Calm     86% 0 in 0.00 W/m2 SCT
05:00 26.6 °F 23 °F 30.04 in Calm     86% 0 in 0.00 W/m2 SCT
05:05 26.7 °F 21.4 °F 30.04 in Calm     80% 0 in 0.00 W/m2 CLR
05:10 26.8 °F 21.5 °F 30.04 in Calm     80% 0 in 0.00 W/m2 CLR
05:15 26.7 °F 21.4 °F 30.04 in Calm     80% 0 in 0.00 W/m2 CLR
05:20 26.6 °F 21.3 °F 30.04 in Calm     80% 0 in 0.00 W/m2 CLR
05:25 26.4 °F 21.1 °F 30.04 in Calm     80% 0 in 0.00 W/m2 CLR
05:30 26.6 °F 21.2 °F 30.05 in Calm     80% 0 in 0.00 W/m2 CLR
05:35 26.5 °F 21.2 °F 30.05 in Calm     80% 0 in 0.00 W/m2 CLR
05:40 26.4 °F 21.1 °F 30.05 in Calm     80% 0 in 0.00 W/m2 CLR
05:45 26.6 °F 21.3 °F 30.05 in Calm     80% 0 in 0.00 W/m2 CLR
05:50 26.7 °F 21.3 °F 30.05 in Calm     80% 0 in 0.00 W/m2 CLR
05:55 26.7 °F 21.4 °F 30.05 in Calm     80% 0 in 0.00 W/m2 CLR
06:00 26.5 °F 21.2 °F 30.05 in Calm     80% 0 in 0.00 W/m2 CLR
06:05 26.5 °F 22.9 °F 30.06 in Calm     86% 0 in 0.00 W/m2 CLR
06:10 26.4 °F 22.8 °F 30.05 in Calm     86% 0 in 0.00 W/m2 CLR
06:15 26.2 °F 22.6 °F 30.05 in Calm     86% 0 in 0.00 W/m2 CLR
06:20 26.3 °F 22.7 °F 30.06 in Calm     86% 0 in 0.00 W/m2 CLR
06:25 26.3 °F 22.7 °F 30.05 in Calm     86% 0 in 0.00 W/m2 CLR
06:30 26.2 °F 22.6 °F 30.06 in Calm     86% 0 in 0.00 W/m2 CLR
06:35 26.2 °F 22.6 °F 30.06 in Calm     86% 0 in 0.00 W/m2 CLR
06:40 26.3 °F 22.6 °F 30.06 in Calm     86% 0 in 0.00 W/m2 CLR
06:45 26.3 °F 22.7 °F 30.06 in Calm     86% 0 in 0.00 W/m2 CLR
06:50 26.4 °F 22.8 °F 30.06 in Calm     86% 0 in 0.00 W/m2 CLR
06:55 26.3 °F 22.7 °F 30.06 in Calm     86% 0 in 0.00 W/m2 CLR
07:00 26.3 °F 22.7 °F 30.06 in Calm     86% 0 in 0.00 W/m2 CLR
07:05 26.6 °F 24.6 °F 30.06 in Calm     92% 0 in 0.00 W/m2 CLR
07:10 26.5 °F 24.5 °F 30.06 in Calm     92% 0 in 0.00 W/m2 CLR
07:15 26.4 °F 24.4 °F 30.06 in Calm     92% 0 in 0.00 W/m2 CLR
07:20 26.4 °F 24.4 °F 30.06 in Calm     92% 0 in 0.00 W/m2 CLR
07:25 26.3 °F 24.3 °F 30.06 in Calm     92% 0 in 0.00 W/m2 CLR
07:30 26.3 °F 24.3 °F 30.06 in Calm     92% 0 in 0.00 W/m2 CLR
07:35 26.6 °F 24.6 °F 30.06 in Calm     92% 0 in 0.00 W/m2 CLR
07:40 26.9 °F 24.8 °F 30.06 in Calm     92% 0 in 5.00 W/m2 CLR
07:45 26.8 °F 24.8 °F 30.06 in Calm     92% 0 in 7.00 W/m2 CLR
07:50 26.8 °F 24.8 °F 30.06 in Calm     92% 0 in 9.00 W/m2 CLR
07:55 26.7 °F 24.7 °F 30.06 in Calm     92% 0 in 12.00 W/m2 CLR
08:00 26.9 °F 24.9 °F 30.06 in Calm     92% 0 in 14.00 W/m2 CLR
08:05 27.1 °F 23.5 °F 30.06 in Calm     86% 0 in 16.00 W/m2 CLR
08:10 27.4 °F 23.8 °F 30.06 in Calm     86% 0 in 18.00 W/m2 CLR
08:15 27.4 °F 23.8 °F 30.06 in Calm     86% 0 in 19.00 W/m2 CLR
08:20 27.6 °F 24 °F 30.06 in Calm     86% 0 in 21.00 W/m2 CLR
08:25 27.9 °F 24.3 °F 30.06 in Calm     86% 0 in 25.00 W/m2 CLR
08:30 28.3 °F 24.7 °F 30.06 in Calm     86% 0 in 23.00 W/m2 CLR
08:35 28.9 °F 25.3 °F 30.06 in Calm     86% 0 in 25.00 W/m2 CLR
08:40 29.4 °F 25.7 °F 30.06 in Calm     86% 0 in 26.00 W/m2 CLR
08:45 29.9 °F 26.2 °F 30.06 in Calm     86% 0 in 33.00 W/m2 CLR
08:50 30.7 °F 27 °F 30.06 in Calm     86% 0 in 28.00 W/m2 CLR
08:55 31.5 °F 27.8 °F 30.06 in Calm     86% 0 in 32.00 W/m2 CLR
09:00 32.4 °F 28.7 °F 30.06 in Calm     86% 0 in 30.00 W/m2 CLR
09:05 33.1 °F 27.6 °F 30.06 in Calm     80% 0 in 39.00 W/m2 CLR
09:10 33.7 °F 28.2 °F 30.06 in Calm     80% 0 in 44.00 W/m2 CLR
09:15 34.4 °F 28.9 °F 30.06 in Calm     80% 0 in 32.00 W/m2 CLR
09:20 35.3 °F 29.8 °F 30.06 in Calm     80% 0 in 35.00 W/m2 CLR
09:25 36.1 °F 30.5 °F 30.06 in Calm     80% 0 in 35.00 W/m2 CLR
09:30 37.3 °F 31.7 °F 30.06 in Calm     80% 0 in 39.00 W/m2 CLR
09:35 38.3 °F 32.7 °F 30.06 in Calm     80% 0 in 46.00 W/m2 CLR
09:40 39.2 °F 33.6 °F 30.06 in Calm     80% 0 in 46.00 W/m2 CLR
09:45 40.1 °F 34.5 °F 30.06 in Calm     80% 0 in 42.00 W/m2 CLR
09:50 41.1 °F 35.4 °F 30.06 in Calm     80% 0 in 47.00 W/m2 CLR
09:55 42.2 °F 36.5 °F 30.06 in Calm     80% 0 in 116.00 W/m2 CLR
10:00 43.4 °F 37.7 °F 30.06 in Calm   1 mph 80% 0 in 206.00 W/m2 CLR
10:05 44.6 °F 32 °F 30.06 in Calm     61% 0 in 322.00 W/m2 CLR
10:10 46.3 °F 33.6 °F 30.06 in Calm     61% 0 in 318.00 W/m2 CLR
10:15 47.9 °F 35.1 °F 30.06 in Calm   1 mph 61% 0 in 304.00 W/m2 CLR
10:20 49.3 °F 36.4 °F 30.06 in WNW 2 mph 12 mph 61% 0 in 279.00 W/m2 CLR
10:25 50.5 °F 37.5 °F 30.06 in Calm   12 mph 61% 0 in 297.00 W/m2 CLR
10:30 51.5 °F 38.5 °F 30.06 in WSW 1 mph 13 mph 61% 0 in 287.00 W/m2 CLR
10:35 52 °F 38.9 °F 30.06 in West 1 mph 12 mph 61% 0 in 290.00 W/m2 CLR
10:40 52.7 °F 39.6 °F 30.06 in West 9 mph 16 mph 61% 0 in 348.00 W/m2 CLR
10:45 52.9 °F 39.8 °F 30.06 in WNW 5 mph 14 mph 61% 0 in 381.00 W/m2 CLR
10:50 53.5 °F 40.4 °F 30.06 in WNW 3 mph 15 mph 61% 0 in 417.00 W/m2 CLR
10:55 53.9 °F 40.8 °F 30.06 in West 3 mph 17 mph 61% 0 in 427.00 W/m2 CLR
11:00 54.4 °F 41.2 °F 30.06 in WNW 2 mph 12 mph 61% 0 in 438.00 W/m2 CLR
11:05 54.8 °F 34.4 °F 30.07 in WNW 5 mph 15 mph 46% 0 in 446.00 W/m2 CLR
11:10 54.9 °F 34.5 °F 30.06 in West 7 mph 16 mph 46% 0 in 454.00 W/m2 CLR
11:15 55.4 °F 34.9 °F 30.07 in West 5 mph 14 mph 46% 0 in 462.00 W/m2 CLR
11:20 55.7 °F 35.2 °F 30.07 in West 2 mph 9 mph 46% 0 in 468.00 W/m2 CLR
11:25 56.4 °F 35.8 °F 30.07 in West 2 mph 12 mph 46% 0 in 473.00 W/m2 CLR
11:30 56.7 °F 36.1 °F 30.06 in West 7 mph 16 mph 46% 0 in 482.00 W/m2 CLR
11:35 57.1 °F 36.5 °F 30.06 in West 1 mph 13 mph 46% 0 in 483.00 W/m2 CLR
11:40 57.5 °F 36.9 °F 30.06 in West 7 mph 12 mph 46% 0 in 475.00 W/m2 CLR
11:45 58 °F 37.3 °F 30.06 in WNW 1 mph 8 mph 46% 0 in 464.00 W/m2 CLR
11:50 58.8 °F 38.1 °F 30.06 in WNW 5 mph 9 mph 46% 0 in 452.00 W/m2 CLR
11:55 59 °F 38.2 °F 30.06 in WNW 7 mph 15 mph 46% 0 in 438.00 W/m2 CLR
12:00 59.1 °F 38.3 °F 30.07 in WNW 8 mph 15 mph 46% 0 in 424.00 W/m2 CLR
12:05 59 °F 31.3 °F 30.07 in WNW 10 mph 18 mph 35% 0 in 418.00 W/m2 CLR
12:10 59.4 °F 31.7 °F 30.07 in WNW 8 mph 15 mph 35% 0 in 420.00 W/m2 CLR
12:15 59.6 °F 31.9 °F 30.07 in WNW 5 mph 16 mph 35% 0 in 425.00 W/m2 CLR
12:20 60 °F 32.2 °F 30.07 in NW 6 mph 15 mph 35% 0 in 438.00 W/m2 CLR
12:25 60 °F 32.2 °F 30.07 in NW 9 mph 21 mph 35% 0 in 454.00 W/m2 CLR
12:30 59.5 °F 31.8 °F 30.07 in NW 12 mph 20 mph 35% 0 in 478.00 W/m2 CLR
12:35 59.8 °F 32 °F 30.07 in WNW 9 mph 20 mph 35% 0 in 504.00 W/m2 CLR
12:40 59.7 °F 32 °F 30.06 in WNW 7 mph 20 mph 35% 0 in 524.00 W/m2 CLR
12:45 60.1 °F 32.3 °F 30.06 in NW 8 mph 16 mph 35% 0 in 545.00 W/m2 CLR
12:50 60.4 °F 32.6 °F 30.06 in NW 8 mph 14 mph 35% 0 in 550.00 W/m2 CLR
12:55 60.1 °F 32.3 °F 30.06 in NW 12 mph 22 mph 35% 0 in 554.00 W/m2 CLR
13:00 60 °F 32.2 °F 30.06 in WNW 5 mph 18 mph 35% 0 in 555.00 W/m2 CLR
13:05 60.5 °F 28.9 °F 30.06 in West 12 mph 20 mph 30% 0 in 557.00 W/m2 CLR
13:10 60.6 °F 29 °F 30.06 in WNW 6 mph 14 mph 30% 0 in 555.00 W/m2 CLR
13:15 61 °F 29.3 °F 30.05 in WNW 5 mph 15 mph 30% 0 in 557.00 W/m2 CLR
13:20 61.2 °F 29.5 °F 30.05 in WNW 3 mph 12 mph 30% 0 in 555.00 W/m2 CLR
13:25 60.9 °F 29.2 °F 30.05 in WNW 9 mph 20 mph 30% 0 in 552.00 W/m2 CLR
13:30 61 °F 29.3 °F 30.05 in WNW 6 mph 20 mph 30% 0 in 550.00 W/m2 CLR
13:35 61.3 °F 29.6 °F 30.05 in WNW 8 mph 17 mph 30% 0 in 554.00 W/m2 CLR
13:40 61.2 °F 29.5 °F 30.05 in WNW 9 mph 20 mph 30% 0 in 548.00 W/m2 CLR
13:45 61.1 °F 29.4 °F 30.05 in WNW 9 mph 23 mph 30% 0 in 543.00 W/m2 CLR
13:50 61.1 °F 29.4 °F 30.04 in WNW 5 mph 17 mph 30% 0 in 540.00 W/m2 CLR
13:55 61.2 °F 29.5 °F 30.04 in WNW 7 mph 20 mph 30% 0 in 533.00 W/m2 CLR
14:00 60.9 °F 29.3 °F 30.05 in WNW 9 mph 21 mph 30% 0 in 527.00 W/m2 CLR
14:05 61.1 °F 26 °F 30.05 in WNW 8 mph 16 mph 26% 0 in 526.00 W/m2 CLR
14:10 61.1 °F 25.9 °F 30.05 in WNW 13 mph 26 mph 26% 0 in 520.00 W/m2 CLR
14:15 60.8 °F 25.7 °F 30.04 in NW 8 mph 20 mph 26% 0 in 513.00 W/m2 CLR
14:20 60.7 °F 25.6 °F 30.04 in NW 15 mph 21 mph 26% 0 in 504.00 W/m2 CLR
14:25 60.5 °F 25.4 °F 30.04 in NW 10 mph 21 mph 26% 0 in 501.00 W/m2 CLR
14:30 60.8 °F 25.7 °F 30.04 in WNW 12 mph 23 mph 26% 0 in 492.00 W/m2 CLR
14:35 61 °F 25.8 °F 30.04 in NW 10 mph 24 mph 26% 0 in 485.00 W/m2 CLR
14:40 60.8 °F 25.7 °F 30.04 in NW 10 mph 20 mph 26% 0 in 478.00 W/m2 CLR
14:45 60.8 °F 25.7 °F 30.04 in WNW 10 mph 22 mph 26% 0 in 471.00 W/m2 CLR
14:50 60.6 °F 25.5 °F 30.04 in WNW 12 mph 20 mph 26% 0 in 464.00 W/m2 CLR
14:55 60.5 °F 25.4 °F 30.04 in NW 9 mph 23 mph 26% 0 in 455.00 W/m2 CLR
15:00 60.7 °F 25.6 °F 30.04 in WNW 9 mph 20 mph 26% 0 in 445.00 W/m2 CLR
15:05 60.8 °F 24.7 °F 30.04 in WNW 10 mph 18 mph 25% 0 in 443.00 W/m2 CLR
15:10 60.8 °F 24.7 °F 30.04 in WNW 7 mph 16 mph 25% 0 in 431.00 W/m2 CLR
15:15 60.7 °F 24.6 °F 30.04 in WNW 10 mph 20 mph 25% 0 in 422.00 W/m2 CLR
15:20 60.3 °F 24.3 °F 30.03 in NW 9 mph 18 mph 25% 0 in 257.00 W/m2 CLR
15:25 60.6 °F 24.5 °F 30.04 in NW 12 mph 22 mph 25% 0 in 207.00 W/m2 CLR
15:30 60.1 °F 24.2 °F 30.04 in NW 13 mph 22 mph 25% 0 in 257.00 W/m2 CLR
15:35 60.1 °F 24.1 °F 30.03 in NW 9 mph 16 mph 25% 0 in 274.00 W/m2 CLR
15:40 60.2 °F 24.2 °F 30.04 in NW 13 mph 29 mph 25% 0 in 301.00 W/m2 CLR
15:45 59.7 °F 23.8 °F 30.04 in NW 14 mph 24 mph 25% 0 in 172.00 W/m2 CLR
15:50 59.4 °F 23.5 °F 30.04 in NW 8 mph 20 mph 25% 0 in 44.00 W/m2 CLR
15:55 59.4 °F 23.5 °F 30.04 in NW 12 mph 22 mph 25% 0 in 39.00 W/m2 CLR
16:00 59.4 °F 23.6 °F 30.04 in NW 14 mph 22 mph 25% 0 in 46.00 W/m2 CLR
16:05 59.3 °F 24.4 °F 30.04 in WNW 13 mph 20 mph 26% 0 in 44.00 W/m2 CLR
16:10 59.2 °F 24.3 °F 30.04 in NW 9 mph 15 mph 26% 0 in 53.00 W/m2 CLR
16:15 59.1 °F 24.2 °F 30.04 in NW 10 mph 17 mph 26% 0 in 60.00 W/m2 CLR
16:20 59.1 °F 24.2 °F 30.05 in NW 14 mph 21 mph 26% 0 in 56.00 W/m2 CLR
16:25 58.8 °F 23.9 °F 30.05 in WNW 10 mph 20 mph 26% 0 in 37.00 W/m2 CLR
16:30 58.5 °F 23.7 °F 30.05 in WNW 8 mph 21 mph 26% 0 in 44.00 W/m2 CLR
16:35 58.4 °F 23.6 °F 30.05 in NW 10 mph 17 mph 26% 0 in 33.00 W/m2 CLR
16:40 58.1 °F 23.4 °F 30.05 in NW 8 mph 20 mph 26% 0 in 32.00 W/m2 CLR
16:45 58 °F 23.2 °F 30.05 in NW 12 mph 21 mph 26% 0 in 30.00 W/m2 CLR
16:50 57.8 °F 23.1 °F 30.05 in NW 9 mph 16 mph 26% 0 in 33.00 W/m2 CLR
16:55 57.6 °F 22.9 °F 30.05 in NW 6 mph 17 mph 26% 0 in 28.00 W/m2 CLR
17:00 57.4 °F 22.8 °F 30.05 in WNW 9 mph 18 mph 26% 0 in 28.00 W/m2 CLR
17:05 57.2 °F 24.3 °F 30.06 in WNW 13 mph 18 mph 28% 0 in 26.00 W/m2 CLR
17:10 57 °F 24.2 °F 30.06 in WNW 10 mph 20 mph 28% 0 in 28.00 W/m2 CLR
17:15 56.8 °F 24 °F 30.06 in WNW 5 mph 17 mph 28% 0 in 30.00 W/m2 CLR
17:20 56.5 °F 23.7 °F 30.06 in WNW 12 mph 20 mph 28% 0 in 25.00 W/m2 CLR
17:25 56.4 °F 23.7 °F 30.07 in WNW 9 mph 14 mph 28% 0 in 23.00 W/m2 CLR
17:30 56.3 °F 23.6 °F 30.07 in WNW 3 mph 12 mph 28% 0 in 21.00 W/m2 CLR
17:35 55.9 °F 23.3 °F 30.07 in NW 8 mph 13 mph 28% 0 in 19.00 W/m2 CLR
17:40 55.7 °F 23 °F 30.07 in NW 3 mph 14 mph 28% 0 in 18.00 W/m2 CLR
17:45 55.6 °F 23 °F 30.07 in WNW 5 mph 12 mph 28% 0 in 16.00 W/m2 CLR
17:50 55.4 °F 22.8 °F 30.07 in WNW 8 mph 12 mph 28% 0 in 14.00 W/m2 CLR
17:55 55.1 °F 22.5 °F 30.07 in NW 9 mph 15 mph 28% 0 in 12.00 W/m2 CLR
18:00 54.8 °F 22.3 °F 30.07 in NW 8 mph 13 mph 28% 0 in 11.00 W/m2 CLR
Zumbrota Weather